This demonstration page uses our WeatherBlox Daily Observations layout. Learn more.

Left ArrowRight Arrow

41.86663, -103.66717

Hourly Observations for September 17, 2020

Temp ( °F °C ) Dew Point ( °F °C ) Humidity (%) Winds ( mph kmh ) Pressure ( in mb ) Visibility ( mi km ) Precip ( " mm )
12:53 am 00:53 Hazy 51 10.6 44 6.7 77 77 E 8 13 30.16 1021 6 9.65604 0 0
1:53 am 01:53 Hazy 49 9.4 44 6.7 83 83 ENE 6 9 30.14 1021 6 9.65604 0 0
2:53 am 02:53 Hazy 49 9.4 44 6.7 83 83 ENE 6 9 30.13 1020 6 9.65604 0 0
3:53 am 03:53 Clear with Mist and Fog 48 8.9 44 6.7 86 86 E 7 11 30.11 1020 6 9.65604 0 0
4:53 am 04:53 Hazy 49 9.4 44 6.7 83 83 E 8 13 30.1 1019 6 9.65604 0 0
5:53 am 05:53 Clear with Mist and Fog 49 9.4 45 7.2 86 86 E 8 13 30.09 1019 5 8.0467 0 0
6:53 am 06:53 Sunny with Mist and Fog 47 8.3 44 6.7 90 90 SE 5 7 30.11 1020 4 6.43736 0 0
7:53 am 07:53 Sunny with Mist and Fog 49 9.4 46 7.8 90 90 ESE 7 11 30.14 1021 4 6.43736 0 0
8:53 am 08:53 Hazy 54 12.2 47 8.3 77 77 Calm 30.14 1021 4 6.43736 0 0
9:53 am 09:53 Hazy 61 16.1 48 8.9 63 63 WNW 8 13 30.14 1021 4 6.43736 0 0
10:53 am 10:53 Hazy 64 17.8 49 9.4 58 58 WNW 8 13 30.14 1021 4 6.43736 0 0
11:53 am 11:53 Hazy 70 21.1 50 10 49 49 NW 10 17 30.12 1020 4 6.43736 0 0
12:53 pm 12:53 Hazy 77 25 49 9.4 37 37 W 7 11 30.09 1019 4 6.43736 0 0
1:53 pm 13:53 Hazy 80 26.7 48 8.9 33 33 undefined N/A 30.07 1018 5 8.0467 0 0
2:53 pm 14:53 Hazy 85 29.4 43 6.1 23 23 VRB 7 11 30.04 1017 5 8.0467 0 0
3:53 pm 15:53 Hazy 84 28.9 43 6.1 24 24 NNE 10 17 30.06 1018 5 8.0467 0 0
4:53 pm 16:53 Hazy 80 26.7 45 7.2 29 29 NNE 13 20 30.07 1018 6 9.65604 0 0
5:53 pm 17:53 Hazy 77 25 46 7.8 33 33 NE 10 17 30.09 1019 5 8.0467 0 0
6:53 pm 18:53 Hazy 72 22.2 47 8.3 41 41 NE 8 13 30.13 1020 6 9.65604 0 0
7:53 pm 19:53 Clear 67 19.4 47 8.3 49 49 undefined N/A 30.16 1021 7 11.26538 0 0
8:53 pm 20:53 Clear 62 16.7 47 8.3 58 58 NNE 9 15 30.19 1022 7 11.26538 0 0
9:53 pm 21:53 Clear 59 15 46 7.8 62 62 NE 7 11 30.19 1022 7 11.26538 0 0
10:53 pm 22:53 Hazy 55 12.8 46 7.8 72 72 WSW 6 9 30.21 1023 6 9.65604 0 0
11:53 pm 23:53 Clear 55 12.8 46 7.8 72 72 NNE 3 6 30.2 1023 7 11.26538 0 0

Powered by AerisWeather